Location: Spaichingen
(48.0400°N, 8.4300°E)
Time: 22:34:14
(UTC+01:00)

ISS - Pass Details

Date: 02 February 2019
Orbit: 403 x 411 km, 51.6° (Epoch: 20 February)

Event Time Altitude Azimuth Distance (km) Brightness Sun altitude
Rises 19:39:47 0° 291° (WNW) 2,338 1.2 -22.3°
Reaches altitude 10° 19:41:53 10° 294° (WNW) 1,477 -0.1 -22.6°
Enters shadow 19:44:10 40° 309° (NW) 620 -2.6 -23.0°
